TimeEDT,TemperatureF,Dew PointF,Humidity,Sea Level PressureIn,VisibilityMPH,Wind Direction,Wind SpeedMPH,Gust SpeedMPH,PrecipitationIn,Events,Conditions,WindDirDegrees,DateUTC
12:58 AM,58.8,57.4,95,30.07,10.0,Calm,Calm,-,N/A,,Clear,0,2013-09-04 04:58:00
1:58 AM,58.1,57.4,97,30.07,10.0,Calm,Calm,-,N/A,,Clear,0,2013-09-04 05:58:00
2:58 AM,56.8,55.9,97,30.07,10.0,Calm,Calm,-,N/A,,Clear,0,2013-09-04 06:58:00
3:58 AM,56.3,55.8,98,30.07,10.0,Calm,Calm,-,N/A,,Clear,0,2013-09-04 07:58:00
4:58 AM,55.6,55.4,99,30.08,10.0,North,3.5,-,N/A,,Clear,360,2013-09-04 08:58:00
5:58 AM,55.8,55.2,98,30.08,10.0,Calm,Calm,-,N/A,,Clear,0,2013-09-04 09:58:00
6:58 AM,57.6,57.2,99,30.10,10.0,North,3.5,-,N/A,,Clear,10,2013-09-04 10:58:00
7:58 AM,58.1,57.6,98,30.12,10.0,NNE,3.5,-,N/A,,Clear,30,2013-09-04 11:58:00
8:58 AM,63.1,59.5,88,30.13,10.0,North,3.5,-,N/A,,Clear,10,2013-09-04 12:58:00
9:58 AM,67.1,58.5,74,30.15,10.0,ENE,2.3,-,N/A,,Clear,60,2013-09-04 13:58:00
10:58 AM,70.7,58.6,66,30.16,10.0,East,4.6,-,N/A,,Clear,90,2013-09-04 14:58:00
11:58 AM,73.2,57.7,58,30.16,10.0,East,8.1,-,N/A,,Clear,100,2013-09-04 15:58:00
12:38 PM,75.2,57.2,53,30.16,10.0,East,1.2,-,N/A,Rain,Light Rain,80,2013-09-04 16:38:00
12:53 PM,75.2,59.0,57,30.16,10.0,Variable,6.9,-,N/A,,Clear,0,2013-09-04 16:53:00
12:58 PM,75.4,59.0,57,30.16,10.0,Variable,4.6,-,0.00,,Clear,0,2013-09-04 16:58:00
1:07 PM,75.2,59.0,57,30.16,10.0,East,5.8,-,N/A,Rain,Light Rain,90,2013-09-04 17:07:00
1:27 PM,75.2,59.0,57,30.15,10.0,ESE,4.6,-,N/A,,Clear,110,2013-09-04 17:27:00
1:28 PM,75.2,59.0,57,30.15,10.0,East,5.8,-,N/A,Rain,Light Rain,100,2013-09-04 17:28:00
1:32 PM,75.2,59.0,57,30.15,10.0,Variable,3.5,-,N/A,,Clear,0,2013-09-04 17:32:00
1:35 PM,75.2,59.0,57,30.14,10.0,Variable,1.2,-,N/A,Rain,Light Rain,0,2013-09-04 17:35:00
1:45 PM,77.0,59.0,54,30.14,10.0,Variable,3.5,-,N/A,,Clear,0,2013-09-04 17:45:00
1:55 PM,76.5,58.3,53,30.13,10.0,SE,3.5,-,N/A,,Clear,130,2013-09-04 17:55:00
2:58 PM,77.0,59.5,55,30.13,10.0,ENE,4.6,-,N/A,,Clear,70,2013-09-04 18:58:00
3:58 PM,78.6,61.0,55,30.12,10.0,North,3.5,-,N/A,,Clear,350,2013-09-04 19:58:00
4:58 PM,78.4,60.8,55,30.12,10.0,NE,2.3,-,N/A,,Clear,50,2013-09-04 20:58:00
5:58 PM,78.4,60.8,55,30.11,10.0,NNW,4.6,-,N/A,,Clear,340,2013-09-04 21:58:00
6:58 PM,78.3,60.8,55,30.11,10.0,WSW,3.5,-,N/A,,Clear,250,2013-09-04 22:58:00
7:58 PM,72.3,65.5,79,30.11,10.0,NW,1.2,-,N/A,,Clear,320,2013-09-04 23:58:00
8:58 PM,66.2,62.8,89,30.12,10.0,WNW,1.2,-,N/A,,Clear,300,2013-09-05 00:58:00
9:58 PM,64.9,61.5,89,30.13,10.0,Calm,Calm,-,N/A,,Clear,0,2013-09-05 01:58:00
10:58 PM,62.8,61.3,95,30.14,3.0,Calm,Calm,-,N/A,,Clear,0,2013-09-05 02:58:00
11:03 PM,62.6,62.6,100,30.14,2.5,Calm,Calm,-,N/A,,Clear,0,2013-09-05 03:03:00
11:07 PM,62.6,62.6,100,30.14,7.0,Calm,Calm,-,N/A,,Clear,0,2013-09-05 03:07:00
11:55 PM,63.0,62.4,98,30.15,6.0,Calm,Calm,-,N/A,,Clear,0,2013-09-05 03:55:00